RH
23 21 21 20 19 27 26 19 25 13 14 11 14 18 17 18 21 23 24 25 26 29 30 31 33 35 38 40 46 51 55 56 58 60 60 57 48 42 38 35 35 35 34 33
21 18 18 18 14 18 21 17 18 15 16 10 12 15 16 17 19 23 25 28 29 30 31 33 35 37 42 47 53 58 61 62 64 63 59 49 43 38 36 36 36 35 34 31
45 25 21 25 17 15 14 17 16 20 12 12 14 18 20 21 23 26 27 28 30 29 29 32 40 46 50 55 61 66 66 67 64 57 48 43 37 36 36 37 36 35 33 32
67 48 47 34 23 17 16 16 17 16 16 18 17 20 23 24 26 29 29 30 33 37 44 52 53 53 58 64 69 69 69 64 55 47 41 38 37 37 38 38 37 36 37 38
70 66 43 34 30 25 24 18 17 17 17 20 20 22 25 25 26 28 29 33 39 51 58 55 56 60 66 69 70 70 64 56 47 40 39 37 36 37 37 38 39 40 39 38
64 65 62 46 39 35 27 24 19 18 21 21 21 28 30 28 27 30 36 43 55 57 56 58 62 69 71 71 69 61 53 44 41 39 36 35 35 36 37 38 42 43 42 39
71 65 50 36 35 37 37 32 26 23 22 23 28 28 30 31 35 44 56 60 58 58 61 64 71 73 71 68 59 48 42 41 39 37 36 37 39 40 39 43 47 44 44 40
65 69 57 36 33 32 34 34 34 30 28 27 28 32 36 44 53 57 56 56 61 63 69 74 74 71 65 55 45 42 39 38 37 37 38 40 42 40 46 52 50 50 49 48
56 55 46 41 38 36 31 30 33 36 41 48 47 44 52 53 56 60 62 64 67 73 76 73 69 61 48 42 38 35 34 34 34 35 36 39 41 42 48 51 55 57 57 50
50 48 44 36 32 32 32 34 43 49 47 47 53 56 56 60 63 63 64 66 75 75 70 65 56 45 38 35 33 30 30 30 30 30 32 35 40 47 52 56 56 54 56 57
50 46 42 38 36 36 37 42 44 50 60 59 52 58 66 63 64 66 73 77 73 66 61 50 40 35 33 30 28 28 24 21 29 33 33 37 40 47 53 46 47 51 59 61
48 41 40 38 37 38 40 46 53 59 57 57 64 63 65 68 73 78 74 68 62 57 45 36 32 29 25 25 23 20 30 38 37 36 37 41 45 41 28 31 38 47 53 61
43 44 47 48 44 47 51 55 56 55 57 61 65 70 76 78 75 69 64 58 51 39 32 28 24 22 21 19 25 36 41 42 42 38 42 43 37 32 33 23 35 43 50 52
50 51 56 57 58 60 61 57 54 58 62 67 71 77 76 71 66 58 51 44 34 28 22 20 19 18 21 31 42 44 46 42 36 39 40 37 34 33 37 41 42 42 47 48
56 56 57 62 63 61 56 57 60 61 64 68 76 74 70 61 51 45 38 29 24 21 19 18 21 27 37 42 44 43 40 35 38 39 37 34 35 36 44 51 47 44 51 62
59 55 56 57 59 59 61 60 59 64 70 77 74 67 56 47 40 32 25 22 19 18 19 27 30 35 39 43 40 33 28 34 40 43 40 37 41 49 49 45 51 64 68 66
61 66 64 62 61 61 60 62 67 74 78 74 65 52 43 36 28 22 19 19 19 22 27 31 32 33 34 34 30 27 29 36 40 42 45 48 51 44 45 60 66 59 51 57
68 65 64 65 65 63 66 70 77 78 71 61 48 41 31 24 21 20 19 20 21 23 27 30 30 28 29 30 29 30 39 45 47 47 48 47 42 50 62 58 54 66 72 75
67 67 69 68 66 71 73 78 75 69 56 50 38 27 22 20 19 20 20 22 23 25 29 30 27 24 25 29 35 41 45 45 46 44 40 40 51 54 55 71 75 76 77 75
69 70 71 73 74 75 75 73 63 55 50 37 24 21 20 19 19 20 23 24 26 29 30 25 21 23 31 35 39 44 46 45 38 36 39 49 51 68 79 79 80 78 78 94
72 73 75 75 73 73 65 55 51 44 28 21 19 19 20 20 20 23 23 24 28 25 25 25 27 32 36 38 43 44 44 38 36 37 49 56 77 81 83 83 80 89 100 99
74 74 74 74 67 55 50 47 34 23 19 19 20 21 20 21 22 22 26 28 28 28 27 28 31 36 39 45 48 44 39 37 37 51 61 79 82 84 85 84 96 99 99 99
74 74 67 54 48 46 40 27 20 20 21 22 24 24 22 23 25 26 27 27 26 27 30 33 36 40 43 49 48 38 35 36 51 63 81 84 85 85 86 97 99 99 96 94
68 55 49 47 43 33 21 20 24 25 26 27 27 25 28 27 22 25 25 26 28 30 32 36 41 42 47 49 41 33 33 48 61 81 89 87 88 89 97 98 94 90 85 84
50 48 44 42 32 29 29 29 29 28 27 26 24 23 23 22 25 26 27 28 30 31 34 40 40 43 50 47 34 30 38 56 73 90 91 92 92 91 95 92 88 83 78 74
46 43 37 29 31 32 30 26 22 22 21 18 21 22 21 22 24 26 28 29 30 33 38 38 39 46 47 38 29 29 50 62 87 92 93 92 89 92 91 89 84 81 77 73
44 28 25 27 28 29 25 19 18 19 21 22 22 20 21 23 25 27 27 28 32 36 36 37 43 46 42 31 27 39 56 69 91 92 91 89 89 87 85 84 82 79 76 72